This is the latest recevied weather packets stored in our database for station/object W5LND-10. If no packets are shown the sender has not sent any weather packets the latest 10 day(s).
| Time | Temp. | Humidity | Pressure | Rain* | Wind** | Luminosity | Snow |
|---|---|---|---|---|---|---|---|
| 1776976304 | 32.78° C | 13% | 1000.1 hPa | 0 mm | - | 784 W/m² | - |
| 1776976004 | 33.33° C | 14% | 1000.2 hPa | 0 mm | - | 921 W/m² | - |
| 1776975704 | 33.33° C | 14% | 1000.2 hPa | 0 mm | - | 930 W/m² | - |
| 1776975404 | 33.89° C | 15% | 1000.4 hPa | 0 mm | - | 933 W/m² | - |
| 1776975103 | 33.89° C | 17% | 1000.5 hPa | 0 mm | - | 953 W/m² | - |
| 1776974803 | 33.33° C | 17% | 1000.6 hPa | 0 mm | - | 972 W/m² | - |
| 1776974504 | 32.78° C | 20% | 1000.8 hPa | 0 mm | - | 970 W/m² | - |
| 1776974204 | 32.22° C | 19% | 1000.9 hPa | 0 mm | - | 969 W/m² | - |
| 1776973904 | 32.78° C | 19% | 1000.9 hPa | 0 mm | - | 900 W/m² | - |
| 1776973604 | 32.22° C | 19% | 1001 hPa | 0 mm | - | 1011 W/m² | - |
| 1776973304 | 32.78° C | 18% | 1001.1 hPa | 0 mm | - | 1016 W/m² | - |
| 1776973004 | 32.22° C | 19% | 1001.2 hPa | 0 mm | - | 988 W/m² | - |
| 1776972704 | 32.22° C | 20% | 1001.3 hPa | 0 mm | - | 970 W/m² | - |
| 1776972404 | 32.22° C | 21% | 1001.4 hPa | 0 mm | - | 914 W/m² | - |
| 1776972104 | 32.22° C | 20% | 1001.6 hPa | 0 mm | - | 949 W/m² | - |
| 1776971804 | 31.67° C | 21% | 1001.4 hPa | 0 mm | - | 986 W/m² | - |
| 1776971504 | 32.22° C | 20% | 1001.7 hPa | 0 mm | - | 1000 W/m² | - |
| 1776971204 | 32.22° C | 21% | 1001.7 hPa | 0 mm | - | 912 W/m² | - |
| 1776970904 | 31.67° C | 20% | 1001.9 hPa | 0 mm | - | 923 W/m² | - |
| 1776970604 | 31.67° C | 21% | 1001.8 hPa | 0 mm | - | 949 W/m² | - |
| 1776970304 | 31.67° C | 21% | 1001.8 hPa | 0 mm | - | 1034 W/m² | - |
| 1776970004 | 31.67° C | 22% | 1001.9 hPa | 0 mm | - | 1039 W/m² | - |
| 1776969704 | 31.67° C | 23% | 1002 hPa | 0 mm | - | 1023 W/m² | - |
| 1776969404 | 31.67° C | 25% | 1002.3 hPa | 0 mm | - | 981 W/m² | - |
| 1776969104 | 31.11° C | 23% | 1002.3 hPa | 0 mm | - | 1041 W/m² | - |
* Rain latest hour (hover to see other rain measurements)
** Current wind speed in m/s (hover to see current wind gust speed)